{"data":{"norad_id":68850,"intl_designator":"2026-094M","name":"STARLINK-37482","alt_names":[],"object_type":"PAYLOAD","status":"ACTIVE","operator":null,"country":"US","launch_date":"2026-04-26","launch_site_code":"AFWTR","launch_vehicle":null,"mission":null,"orbit_class":"UNKNOWN","rcs_meters":null,"size_class":null,"mass_kg":null,"dimensions":null,"purposes":["comms"],"wikipedia_slug":null,"has_3d_model":false,"image_url":null,"decayed_at":null,"tle_current":{"epoch":"2026-05-25T00:06:58.008384Z","epoch_age_seconds":68590,"freshness":"FRESH","line1":"1 68850U 26094M   26145.00483806  .00046496  00000+0  85068-3 0  9993","line2":"2 68850  97.2835 159.5921 0001305 127.1315 233.0056 15.49217448  4484","mean_motion":15.49217448,"eccentricity":0.0001305,"inclination_deg":97.2835,"raan_deg":159.5921,"arg_perigee_deg":127.1315,"mean_anomaly_deg":233.0056,"bstar":0.00085068,"rev_number":448,"period_min":92.950153760468,"perigee_km":418.1270288897,"apogee_km":419.90108531561,"semimajor_km":6797.1510571027,"source":"CELESTRAK","updated_at":"2026-05-25T13:38:22.047915Z"}}}